Weather History for KMYR - July, 2013

Change the Weather History Date:

Tuesday, July 16, 2013

  Actual Average Record
Temperature  
Mean Temperature 80 °F -  
Max Temperature 87 °F 84 °F 95 °F (1956)
Min Temperature 73 °F 69 °F 63 °F (2001)
Cooling Degree Days 15    
Growing Degree Days 30 (Base 50)    
Moisture  
Dew Point 73 °F    
Average Humidity 80    
Maximum Humidity 94    
Minimum Humidity 62    
Precipitation  
Precipitation 0.00 in - - ()
Sea Level Pressure  
Sea Level Pressure 30.25 in    
Wind  
Wind Speed 6 mph (East)    
Max Wind Speed 9 mph    
Max Gust Speed -    
Visibility 10 miles    
Events      
Averages and records for this station are not official NWS values.
T = Trace of Precipitation, MM = Missing Value Source: NWS Daily Summary

Daily Weather History Graph

Daily Weather History Graph

Search for Another Location

Airport or City:

Trip Planner

Search our weather history database for the weather conditions in past years. The results will help you decide how hot, cold, wet, or windy it might be!

Date:

Astronomy

Jul. 16, 2013 Rise Set
Actual Time 6:17 AM EDT 8:26 PM EDT
Civil Twilight 5:48 AM EDT 8:54 PM EDT
Nautical Twilight 5:14 AM EDT 9:28 PM EDT
Astronomical Twilight 4:37 AM EDT 10:06 PM EDT
Moon 2:12 PM EDT (7/16) 12:37 AM EDT (7/16)
Length of Visible Light 15h 05m
Length of Day
14h 09m
First Quarter, 56% of the Moon is Illuminated
Jul 16
First Quarter
Jul 22
Full
Jul 29
Last Quarter
Aug 6
New
Aug 14
First Quarter

Hourly Weather History & Observations

Time (EDT) Temp. Heat Index Dew Point Humidity Pressure Visibility Wind Dir Wind Speed Gust Speed Precip Events Conditions
12:15 AM 78.8 °F - 73.4 °F 83% 30.27 in 10.0 mi East 9.2 mph - N/A   Scattered Clouds
12:35 AM 78.8 °F - 73.4 °F 83% 30.27 in 10.0 mi East 6.9 mph - N/A   Scattered Clouds
12:55 AM 78.8 °F - 73.4 °F 83% 30.26 in 10.0 mi ESE 6.9 mph - N/A   Scattered Clouds
1:15 AM 78.8 °F - 73.4 °F 83% 30.26 in 10.0 mi ESE 6.9 mph - N/A   Partly Cloudy
1:35 AM 78.8 °F - 73.4 °F 83% 30.26 in 10.0 mi East 5.8 mph - N/A   Scattered Clouds
1:55 AM 78.8 °F - 73.4 °F 83% 30.26 in 10.0 mi ESE 5.8 mph - N/A   Scattered Clouds
2:15 AM 78.8 °F - 73.4 °F 83% 30.26 in 10.0 mi East 3.5 mph - N/A   Partly Cloudy
2:35 AM 78.8 °F - 73.4 °F 83% 30.25 in 10.0 mi East 3.5 mph - N/A   Partly Cloudy
2:55 AM 75.2 °F - 73.4 °F 94% 30.25 in 10.0 mi Calm Calm - N/A   Mostly Cloudy
3:15 AM 77.0 °F - 73.4 °F 89% 30.25 in 10.0 mi SSE 5.8 mph - N/A   Mostly Cloudy
3:35 AM 75.2 °F - 71.6 °F 89% 30.25 in 10.0 mi NNW 4.6 mph - N/A   Mostly Cloudy
3:55 AM 75.2 °F - 73.4 °F 94% 30.25 in 10.0 mi North 5.8 mph - N/A   Scattered Clouds
4:15 AM 75.2 °F - 73.4 °F 94% 30.25 in 10.0 mi North 6.9 mph - N/A   Partly Cloudy
4:35 AM 73.4 °F - 71.6 °F 94% 30.25 in 10.0 mi NNW 5.8 mph - N/A   Clear
4:55 AM 73.4 °F - 71.6 °F 94% 30.25 in 10.0 mi North 4.6 mph - N/A   Clear
5:15 AM 73.4 °F - 71.6 °F 94% 30.25 in 10.0 mi North 3.5 mph - N/A   Clear
5:35 AM 73.4 °F - 69.8 °F 88% 30.25 in 9.0 mi Calm Calm - N/A   Clear
6:45 AM 73.4 °F - 71.6 °F 94% 30.27 in 4.0 mi Calm Calm - N/A   Scattered Clouds
6:50 AM 73.4 °F - 69.8 °F 88% 30.26 in 10.0 mi Calm Calm - N/A   Clear
7:45 AM 75.2 °F - 73.4 °F 94% 30.28 in 10.0 mi North 6.9 mph - N/A   Partly Cloudy
8:45 AM 80.6 °F 86.2 °F 75.2 °F 84% 30.29 in 10.0 mi NNE 6.9 mph - N/A   Partly Cloudy
9:45 AM 80.6 °F 86.2 °F 75.2 °F 84% 30.28 in 10.0 mi NNE 6.9 mph - N/A   Mostly Cloudy
10:25 AM 80.6 °F 86.2 °F 75.2 °F 84% 30.28 in 10.0 mi NNE 6.9 mph - N/A   Scattered Clouds
10:45 AM 84.2 °F 90.9 °F 73.4 °F 70% 30.28 in 10.0 mi North 6.9 mph - N/A   Scattered Clouds
11:45 AM 86.0 °F 91.8 °F 71.6 °F 62% 30.27 in 10.0 mi Variable 5.8 mph - N/A   Partly Cloudy
12:45 PM 87.8 °F 97.6 °F 75.2 °F 66% 30.26 in 10.0 mi Variable 5.8 mph - N/A   Partly Cloudy
1:45 PM 87.8 °F 95.6 °F 73.4 °F 62% 30.25 in 10.0 mi Variable 6.9 mph - N/A   Scattered Clouds
2:45 PM 87.8 °F 95.6 °F 73.4 °F 62% 30.25 in 10.0 mi SSE 9.2 mph - N/A   Scattered Clouds
3:45 PM 87.8 °F 95.6 °F 73.4 °F 62% 30.23 in 10.0 mi South 9.2 mph - N/A   Scattered Clouds
4:45 PM 87.8 °F 95.6 °F 73.4 °F 62% 30.22 in 10.0 mi South 5.8 mph - N/A   Partly Cloudy
5:45 PM 86.0 °F 91.8 °F 71.6 °F 62% 30.20 in 10.0 mi South 5.8 mph - N/A   Clear
6:45 PM 84.2 °F 89.6 °F 71.6 °F 66% 30.20 in 10.0 mi South 6.9 mph - N/A   Clear
8:45 PM 82.4 °F 86.3 °F 69.8 °F 66% 30.21 in 10.0 mi South 6.9 mph - N/A   Clear
9:45 PM 80.6 °F 84.6 °F 71.6 °F 74% 30.22 in 10.0 mi Calm Calm - N/A   Clear
10:55 PM 78.8 °F - 69.8 °F 74% 30.23 in 10.0 mi Calm Calm - N/A   Clear
11:15 PM 78.8 °F - 69.8 °F 74% 30.23 in 10.0 mi SW 4.6 mph - N/A   Clear
11:35 PM 78.8 °F - 69.8 °F 74% 30.23 in 10.0 mi Calm Calm - N/A   Clear
11:55 PM 78.8 °F - 69.8 °F 74% 30.23 in 10.0 mi Calm Calm - N/A   Clear